This is the latest recevied weather packets stored in our database for station/object KC0AFB. If no packets are shown the sender has not sent any weather packets the latest 10 day(s).
| Time | Temp. | Humidity | Pressure | Rain* | Wind** | Luminosity | Snow |
|---|---|---|---|---|---|---|---|
| 1777361962 | 0.56° C | 62% | 1017.6 hPa | 0 mm | - | 0 W/m² | - |
| 1777361659 | 1.11° C | 61% | 1017.8 hPa | 0 mm | - | 0 W/m² | - |
| 1777361357 | 1.11° C | 61% | 1017.7 hPa | 0 mm | - | 0 W/m² | - |
| 1777361054 | 1.67° C | 60% | 1017.6 hPa | 0 mm | - | 0 W/m² | - |
| 1777360751 | 1.67° C | 60% | 1017.7 hPa | 0 mm | - | 0 W/m² | - |
| 1777360448 | 1.67° C | 61% | 1017.7 hPa | 0 mm | - | 0 W/m² | - |
| 1777360145 | 1.67° C | 61% | 1017.7 hPa | 0 mm | - | 0 W/m² | - |
| 1777359842 | 1.67° C | 61% | 1017.7 hPa | 0 mm | - | 0 W/m² | - |
| 1777359539 | 1.11° C | 61% | 1017.7 hPa | 0 mm | - | 0 W/m² | - |
| 1777359235 | 1.11° C | 62% | 1017.7 hPa | 0 mm | - | 0 W/m² | - |
| 1777358933 | 1.11° C | 62% | 1017.5 hPa | 0 mm | - | 0 W/m² | - |
| 1777358630 | 1.11° C | 62% | 1017.6 hPa | 0 mm | - | 0 W/m² | - |
| 1777358328 | 1.11° C | 62% | 1017.7 hPa | 0 mm | - | 0 W/m² | - |
| 1777358025 | 1.67° C | 61% | 1017.7 hPa | 0 mm | - | 0 W/m² | - |
| 1777357723 | 1.67° C | 61% | 1017.7 hPa | 0 mm | - | 0 W/m² | - |
| 1777357419 | 1.67° C | 60% | 1017.5 hPa | 0 mm | - | 0 W/m² | - |
| 1777357116 | 1.67° C | 61% | 1017.7 hPa | 0 mm | - | 0 W/m² | - |
| 1777356813 | 1.67° C | 62% | 1017.5 hPa | 0 mm | - | 0 W/m² | - |
| 1777356511 | 1.67° C | 62% | 1017.4 hPa | 0 mm | - | 0 W/m² | - |
| 1777356207 | 1.67° C | 62% | 1017.5 hPa | 0 mm | - | 0 W/m² | - |
| 1777355904 | 2.22° C | 61% | 1017.3 hPa | 0 mm | - | 0 W/m² | - |
| 1777355601 | 2.78° C | 59% | 1017.4 hPa | 0 mm | - | 0 W/m² | - |
| 1777355298 | 2.22° C | 60% | 1017.3 hPa | 0 mm | - | 0 W/m² | - |
| 1777354994 | 1.67° C | 61% | 1017.2 hPa | 0 mm | - | 0 W/m² | - |
| 1777354690 | 1.67° C | 63% | 1017.3 hPa | 0 mm | - | 0 W/m² | - |
* Rain latest hour (hover to see other rain measurements)
** Current wind speed in m/s (hover to see current wind gust speed)